Regional Weather Roundup
Issued by NWS Wakefield, VA

Home | Current Version | Previous Version | Graphics & Text | Print | Product List | Glossary On
Versions: 1 2 3 4 5 6 7 8 9 10 11 12 13 14 15 16 17 18 19 20 21 22 23 24 25 26 27 28 29 30 31 32 33 34 35 36 37 38 39 40 41 42 43 44 45 46 47 48 49 50
702
ASUS41 KAKQ 100614
RWRAKQ

REGIONAL WEATHER ROUNDUP
NATIONAL WEATHER SERVICE WAKEFIELD VA
100 AM EST WED FEB 10 2016

Note: "fair" indicates few or no clouds below 12,000 feet with no
significant weather and/or obstructions to visibility. * = Denotes
station may not report precipitation (e.g., rain,snow,etc.),
thunder or fog.

VAZ042-051-052>054-056-100700-
NORTHERN VIRGINIA

CITY           SKY/WX    TMP DP  RH WIND       PRES   REMARKS
WASH NATIONAL  CLOUDY    32  19  58 NW10      29.71S WCI  24
DULLES         CLOUDY    30  18  60 W14G21    29.70R WCI  19
FORT BELVOIR   CLOUDY    32  18  55 NW12G20   29.70S WCI  23
QUANTICO       CLOUDY    34  20  56 NW8       29.72S
FREDERICKSBRG* CLOUDY    33  24  70 NW6       29.71S
STAFFORD*      CLOUDY    32  21  64 NW5       29.74F
WARRENTON      CLOUDY    32  23  69 W6        29.70S
CULPEPER*      CLOUDY    31  17  58 NW10G16   29.72S WCI  22
MANASSAS*      CLOUDY    32  21  64 NW16      29.71S WCI  21
LEESBURG*      CLOUDY    32  25  74 NW16G25   29.70S WCI  21
WINCHESTER     CLOUDY    30  19  64 W8        29.70S
FRONT ROYAL*   CLOUDY    30  18  59 SW7       29.69S
LURAY*         CLOUDY    28  14  54 SW8       29.70F
$$

VAZ048-049-060>072-079>083-100700-
CENTRAL AND SOUTH CENTRAL VIRGINIA

CITY           SKY/WX    TMP DP  RH WIND       PRES   REMARKS
RICHMOND       CLOUDY    31  16  54 W13       29.72S WCI  21
CHESTERFIELD*  CLOUDY    30   9  40 W8        29.74S
PETERSBURG*    FAIR      30  12  46 SW7       29.75S
HANOVER        CLOUDY    31  20  63 W8        29.73S
TAPPAHANNOCK*  CLOUDY    33  31  95 SW7       29.72R
QUINTON*       CLOUDY    32  17  53 W3        29.71F
CHARLOTTSVILLE CLOUDY    30  15  53 W3        29.71S
GORDONSVILLE*  CLOUDY    31  18  56 W6        29.71R
ORANGE*        CLOUDY    32  19  59 SW10      29.72S WCI  24
LOUISA*        CLOUDY    32  19  59 W10       29.70R WCI  24
BUMPASS*       CLOUDY    31  27  86 W3        29.71S
FARMVILLE*     CLOUDY    30  13  50 SW5       29.73S
CREWE*         FAIR      28  14  56 W6        29.74S
FORT PICKETT*  FAIR      27  13  56 W10       29.74S WCI  17
CHASE CITY*    FAIR      27   9  46 W6        29.77S
CLARKSVILLE*   FAIR      28  12  50 W6        29.79S
SOUTH HILL*    FAIR      27  12  52 W7        29.83R
LAWRENCEVILLE* FAIR      28  13  52 W6        29.76S
EMPORIA*       FAIR      30  12  47 SW10      29.79R WCI  21
$$

VAZ088>098-100700-
SOUTHEAST VIRGINIA

CITY           SKY/WX    TMP DP  RH WIND       PRES   REMARKS
NORFOLK        MOCLDY    35  16  45 W12G21    29.72F
VIRGINIA BEACH FAIR      38  17  42 W14       29.72S
NORFOLK NAVAL  CLOUDY    35  17  47 W17       29.74S WCI  25
WEST POINT*    CLOUDY    33  19  58 W9        29.74S
SALUDA*        CLOUDY    32  24  73 W3        29.70F
NEWPORT NEWS   FAIR      32  18  56 W14       29.73S WCI  22
LANGLEY AFB    MOCLDY    33  19  56 W13       29.72S WCI  24
FORT EUSTIS    FAIR      32  15  49 W9        29.71S
WILLIAMSBURG*  FAIR      34  19  55 W13G18    29.73F WCI  25
HR EXEC AP*    FAIR      34  16  47 W8        29.76R
FRANKLIN*      FAIR      31  15  50 W14       29.77R WCI  21
US460-WAKEFLD  FAIR      31  15  52 W8        29.75S
$$

VAZ020-022-025-037-045-100700-
WEST CENTRAL AND SOUTHWEST VIRGINIA

CITY           SKY/WX    TMP DP  RH WIND       PRES   REMARKS
STAUNTON*      CLOUDY    31  15  51 W5        29.73S
WAYNESBORO*    CLOUDY    25  12  57 W3        29.70S
HOT SPRINGS VA LGT SNOW  14  14 100 W20G26    29.55S WCI  -3
LYNCHBURG      FAIR      24  11  57 VRB6      29.76S
DANVILLE       FAIR      26  12  55 W7        29.81S
SOUTH BOSTON*  FAIR      27  10  49 W6        29.80S
MARTINSVILLE   MOCLDY    21  10  64 CALM      29.83S
ROANOKE        MOCLDY    25  12  58 W10G18    29.80S WCI  15
BLACKSBURG     FLURRIES  21  16  79 W8G22     29.77S
DUBLIN*        FLURRIES  22  17  79 W15       29.77S WCI   9
MARION*        LGT SNOW  19  13  77 W18       29.79S WCI   3
HILLSVILLE*    CLOUDY    17  12  80 NW24G33   29.69F WCI  -1
RICHLANDS*     FLURRIES  17  11  78 W10       29.79S WCI   4
WISE*          LGT SNOW  19  12  73 W6        29.81S VSB 1
ABINGDON*      CLOUDY    22  13  67 W5        29.84F
$$

MDZ021>025-VAZ099-100-100700-
SOUTHERN MARYLAND AND THE DELMARVA PENINSULA

CITY           SKY/WX    TMP DP  RH WIND       PRES   REMARKS
PATUXENT RIVER CLOUDY    33  20  58 NW14      29.69S WCI  23
BAY BRIDGE APT   N/A     32  23  69 W10       29.68S WCI  24
LEONARDTOWN    CLOUDY    32  21  64 W7        29.70S
DOVER          CLOUDY    33  31  93 W14       29.63F WCI  23
GEORGETOWN     CLOUDY    34  28  79 NW6       29.66S
EASTON         CLOUDY    33  25  73 NW9G18    29.71S
CAMBRIDGE      PTCLDY    32  23  69 NW8       29.67S
SALISBURY      CLOUDY    34  27  75 W6        29.66S
OCEAN CITY     CLOUDY    33  28  81 W8        29.66S
WALLOPS ISLAND CLOUDY    34  31  88 W5        29.68S
ACCOMACK*      CLOUDY    34  30  86 W7        29.69S
$$

NCZ012>017-030>032-100700-
NORTH CENTRAL AND EASTERN NORTH CAROLINA

CITY           SKY/WX    TMP DP  RH WIND       PRES   REMARKS
ROANOKE RAPIDS FAIR      30  14  51 W9G17     29.80R
RALEIGH        PTCLDY    29  12  49 W7        29.84R
ELIZABETH CITY CLEAR     34  23  64 SW10      29.75S
AHOSKIE*       CLEAR     31  18  57 CALM      29.78S
EDENTON*       CLEAR     38  22  52 W10G16    29.78S
CURRITUCK*     PTCLDY    37  23  57 SW8       29.75S
KILL DEVIL HLS PTCLDY    38  22  51 W10G20    29.74R
MANTEO         MOCLDY    38  28  67 W12       29.76S
CAPE HATTERAS  CLEAR     40  22  48 W14G25    29.79R
TARBORO*       FAIR      32  17  54 W12       29.82R WCI  23
GOLDSBORO      CLEAR     32  14  47 W9        29.82S
WASHINGTON     CLOUDY    35  19  54 W13       29.80S
GREENVILLE     CLEAR     34  16  47 W8        29.84R
NEW BERN       CLOUDY    38  18  44 W12       29.83R
WILMINGTON     CLOUDY    38  25  59 W16G23    29.86S
$$

VAZ048-100700-
ELSEWHERE

CITY           SKY/WX    TMP DP  RH WIND       PRES   REMARKS
HARRISBURG PA  FLURRIES  30  25  81 W13       29.63S WCI  20
BALTIMORE      CLOUDY    30  21  69 W14G24    29.67S WCI  19
ANNAPOLIS      CLOUDY    32  22  66 W13       29.68S WCI  22
ANDREWS AFB    CLOUDY    31  19  62 NW14      29.68S WCI  20
PHILADELPHIA   CLOUDY    34  29  82 W9        29.63S
HENDERSON NC   CLEAR     28  12  51 W6        29.79S
GREENSBORO     CLEAR     25  11  55 W10       29.80F WCI  15
ROCKY MOUNT    CLEAR     30  15  53 W6        29.82S
$$

VAZ100-100700-
MARINE

STATION/POSITION TIME  TEMP    WIND        PRES    WAVE   SWELL
                       AIR SEA DIR/SP/G            HT/PER HT/PER
                 (UTC) (F)     (DEG/KT/KT) (MB)    (FT/S) (FT/S)
BRANDYWINE LGT   0500   35     300/ 20/ 22 1003.7R
CAPE MAY NJ      0500   36 42  290/ 13/ 18 1003.3R
LEWES DE         0500   36 41  280/ 13/ 15 1004.0R
15NM E FENWICK I 0550   37 43              1003.1F   5/13
OCEAN-CITY-INLET 0500   35 41  320/ 10/ 12 1003.4S
WACHAPREAGUE VA  0500   35 43  270/  3/  5 1005.3S
GOOSES REEF MD   0600   34 40  320/ 16/ 21 1006.1F   2/ 3
COVE POINT MD    0500   33     330/ 12/ 17 1005.8R
SOLOMONS ISLAND  0500   34 41  310/  9/ 13   N/A
BISHOPS HEAD MD  0500   36 41  280/ 16/ 18 1004.3R
PINEY POINT MD   0500          320/ 14/ 17   N/A
POTOMAC MD       0600   35 40  330/ 12/ 14 1004.5S   1/ 2
CAMBRIDGE MD     0500   35 40  290/ 10/ 14 1004.3R
LEWISETTA VA     0500   35 41  300/  5/  7 1005.4R
RAPPAHANNOCK LGT 0500          260/ 16/ 18 1005.7F
STINGRAY PT      0600   34 41  260/ 12/ 16 1005.5S   1/ 2
YORK RVR RNG VA  0500   36     280/ 18/ 21 1005.3R
YORKTOWN VA      0500   35 43  260/ 11/ 16 1006.1R
JAMESTOWN VA     0600   32 43  250/ 12/ 14   N/A     1
DOMINION TERM VA 0500   36     290/ 21/ 25 1006.3R
KIPTOPEKE VA     0500      43  280/ 20/ 26   N/A
CHES BAY BRIDGE  0500   37 43  260/ 21/ 25 1006.1R
CAPE HENRY VA    0500   37     260/ 15/ 22   N/A
CHESAPEAKE LGHT  0500   38     270/ 24/ 25 1006.7R
WILLOUBY STN VA  0500   36     280/ 20/ 23   N/A
CAPE HENRY BUOY  0528      45                N/A     5/13   3/13
1ST LANDING BUOY 0600      43                N/A     3/ 4
CAPE CHARLES BUO 0526      44                N/A     5/14   5/14
OFFSHORE WE BUOY 0521      46                N/A     7/14   5/14
64NM E OF VA BCH 0550   42 50  280/ 21/ 27 1005.4R  10/14   7/14
DUCK PIER NC     0500   39     270/ 15/ 20 1006.7R
44100 DUCK FRF   0524      47                N/A     6/14   5/14
44056 DUCK FRF   0511      44                N/A     4/14   3/14
OREGON INLET NC  0500   40 46  260/ 11/ 16 1007.5R
HATTERAS NC      0500   42 52  260/ 20/ 26 1007.9R
DIAMOND SHLS NC  0550   45 73  270/ 23/ 29 1008.2R  10/15   7/15
$$




USA.gov is the U.S. government's official web portal to all federal, state and local government web resources and services.